TimeCST,TemperatureF,Dew PointF,Humidity,Sea Level PressureIn,VisibilityMPH,Wind Direction,Wind SpeedMPH,Gust SpeedMPH,PrecipitationIn,Events,Conditions,WindDirDegrees,DateUTC
12:13 AM,44.6,26.6,49,30.16,10.0,South,11.5,-,N/A,,Scattered Clouds,170,2012-11-15 06:13:00
12:34 AM,44.6,26.6,49,30.16,10.0,South,11.5,-,N/A,,Scattered Clouds,170,2012-11-15 06:34:00
12:54 AM,44.6,26.6,49,30.15,10.0,South,12.7,17.3,N/A,,Scattered Clouds,170,2012-11-15 06:54:00
1:14 AM,46.4,26.6,46,30.15,10.0,South,10.4,-,N/A,,Scattered Clouds,170,2012-11-15 07:14:00
1:33 AM,44.6,26.6,49,30.15,10.0,South,11.5,-,N/A,,Clear,170,2012-11-15 07:33:00
1:53 AM,44.6,26.6,49,30.14,10.0,SSE,13.8,-,N/A,,Scattered Clouds,160,2012-11-15 07:53:00
2:14 AM,44.6,26.6,49,30.14,10.0,SSE,13.8,18.4,N/A,,Mostly Cloudy,160,2012-11-15 08:14:00
2:34 AM,44.6,26.6,49,30.14,10.0,SSE,11.5,-,N/A,,Scattered Clouds,160,2012-11-15 08:34:00
2:54 AM,44.6,26.6,49,30.14,10.0,SSE,11.5,-,N/A,,Scattered Clouds,160,2012-11-15 08:54:00
3:14 AM,44.6,26.6,49,30.14,10.0,SSE,12.7,-,N/A,,Scattered Clouds,160,2012-11-15 09:14:00
3:34 AM,44.6,26.6,49,30.13,10.0,SSE,12.7,-,N/A,,Scattered Clouds,160,2012-11-15 09:34:00
3:53 AM,44.6,26.6,49,30.13,10.0,South,12.7,-,N/A,,Mostly Cloudy,170,2012-11-15 09:53:00
4:13 AM,44.6,26.6,49,30.13,10.0,South,11.5,-,N/A,,Mostly Cloudy,170,2012-11-15 10:13:00
4:34 AM,44.6,24.8,46,30.13,10.0,South,12.7,-,N/A,,Mostly Cloudy,170,2012-11-15 10:34:00
4:53 AM,42.8,26.6,53,30.13,10.0,South,11.5,-,N/A,,Mostly Cloudy,170,2012-11-15 10:53:00
5:14 AM,42.8,26.6,53,30.13,10.0,South,10.4,-,N/A,,Mostly Cloudy,170,2012-11-15 11:14:00
5:34 AM,42.8,26.6,53,30.14,10.0,SSE,10.4,-,N/A,,Mostly Cloudy,160,2012-11-15 11:34:00
5:54 AM,41.0,26.6,57,30.14,10.0,SSE,9.2,-,N/A,,Scattered Clouds,160,2012-11-15 11:54:00
6:13 AM,41.0,26.6,57,30.13,10.0,SSE,10.4,-,N/A,,Scattered Clouds,160,2012-11-15 12:13:00
6:33 AM,39.2,26.6,61,30.14,10.0,South,8.1,-,N/A,,Clear,170,2012-11-15 12:33:00
6:53 AM,39.2,26.6,61,30.15,10.0,South,9.2,-,N/A,,Clear,170,2012-11-15 12:53:00
7:13 AM,39.2,26.6,61,30.16,10.0,South,8.1,-,N/A,,Clear,170,2012-11-15 13:13:00
7:34 AM,39.2,26.6,61,30.16,10.0,South,8.1,-,N/A,,Clear,180,2012-11-15 13:34:00
7:53 AM,39.2,26.6,61,30.17,10.0,South,8.1,-,N/A,,Clear,190,2012-11-15 13:53:00
8:13 AM,39.2,28.4,65,30.18,10.0,SSW,6.9,-,N/A,,Clear,200,2012-11-15 14:13:00
8:33 AM,41.0,28.4,61,30.18,10.0,SW,9.2,-,N/A,,Clear,220,2012-11-15 14:33:00
8:53 AM,42.8,28.4,57,30.18,10.0,SW,8.1,-,N/A,,Clear,220,2012-11-15 14:53:00
9:14 AM,42.8,28.4,57,30.19,10.0,SW,10.4,-,N/A,,Clear,230,2012-11-15 15:14:00
9:34 AM,44.6,28.4,53,30.20,10.0,WSW,8.1,-,N/A,,Clear,240,2012-11-15 15:34:00
9:53 AM,44.6,28.4,53,30.21,10.0,WSW,9.2,-,N/A,,Clear,250,2012-11-15 15:53:00
10:13 AM,44.6,28.4,53,30.21,10.0,West,9.2,-,N/A,,Clear,270,2012-11-15 16:13:00
10:33 AM,46.4,28.4,50,30.22,10.0,West,6.9,-,N/A,,Clear,270,2012-11-15 16:33:00
10:53 AM,46.4,28.4,50,30.22,10.0,West,6.9,-,N/A,,Clear,280,2012-11-15 16:53:00
11:13 AM,48.2,28.4,46,30.22,10.0,West,6.9,-,N/A,,Clear,270,2012-11-15 17:13:00
11:34 AM,48.2,28.4,46,30.22,10.0,West,9.2,-,N/A,,Clear,280,2012-11-15 17:34:00
11:54 AM,50.0,28.4,43,30.22,10.0,WNW,10.4,-,N/A,,Clear,290,2012-11-15 17:54:00
12:13 PM,51.8,28.4,41,30.23,10.0,WNW,11.5,-,N/A,,Clear,300,2012-11-15 18:13:00
12:33 PM,51.8,30.2,44,30.22,10.0,NW,9.2,-,N/A,,Clear,310,2012-11-15 18:33:00
12:53 PM,53.6,28.4,38,30.22,10.0,WNW,12.7,-,N/A,,Clear,300,2012-11-15 18:53:00
1:14 PM,53.6,28.4,38,30.22,10.0,NW,12.7,16.1,N/A,,Clear,320,2012-11-15 19:14:00
1:34 PM,53.6,28.4,38,30.23,10.0,WNW,10.4,-,N/A,,Clear,300,2012-11-15 19:34:00
1:53 PM,55.4,28.4,36,30.23,10.0,NW,11.5,-,N/A,,Clear,310,2012-11-15 19:53:00
2:14 PM,55.4,28.4,36,30.23,10.0,NW,11.5,-,N/A,,Clear,310,2012-11-15 20:14:00
2:33 PM,55.4,28.4,36,30.23,10.0,NW,12.7,-,N/A,,Clear,310,2012-11-15 20:33:00
2:54 PM,53.6,26.6,35,30.25,10.0,NW,15.0,-,N/A,,Clear,310,2012-11-15 20:54:00
3:14 PM,53.6,28.4,38,30.25,10.0,WNW,12.7,18.4,N/A,,Clear,300,2012-11-15 21:14:00
3:34 PM,53.6,28.4,38,30.26,10.0,WNW,12.7,-,N/A,,Clear,300,2012-11-15 21:34:00
3:54 PM,51.8,28.4,41,30.27,10.0,NW,10.4,-,N/A,,Clear,320,2012-11-15 21:54:00
4:14 PM,50.0,30.2,47,30.28,10.0,NW,10.4,-,N/A,,Clear,310,2012-11-15 22:14:00
4:33 PM,48.2,30.2,50,30.29,10.0,WNW,9.2,-,N/A,,Clear,300,2012-11-15 22:33:00
4:54 PM,44.6,28.4,53,30.30,10.0,WNW,8.1,-,N/A,,Clear,300,2012-11-15 22:54:00
5:14 PM,42.8,28.4,57,30.31,10.0,WNW,8.1,-,N/A,,Clear,300,2012-11-15 23:14:00
5:34 PM,44.6,28.4,53,30.32,10.0,WNW,8.1,-,N/A,,Clear,290,2012-11-15 23:34:00
5:54 PM,42.8,28.4,57,30.33,10.0,WNW,8.1,-,N/A,,Clear,300,2012-11-15 23:54:00
6:13 PM,39.2,28.4,65,30.33,10.0,WNW,5.8,-,N/A,,Clear,300,2012-11-16 00:13:00
6:34 PM,37.4,26.6,65,30.34,10.0,NW,5.8,-,N/A,,Clear,310,2012-11-16 00:34:00
6:53 PM,35.6,24.8,65,30.35,10.0,NW,6.9,-,N/A,,Clear,320,2012-11-16 00:53:00
7:33 PM,35.6,24.8,65,30.37,10.0,NW,4.6,-,N/A,,Clear,310,2012-11-16 01:33:00
7:54 PM,33.8,24.8,70,30.37,10.0,NW,3.5,-,N/A,,Clear,320,2012-11-16 01:54:00
8:13 PM,33.8,24.8,70,30.37,10.0,Calm,Calm,-,N/A,,Clear,0,2012-11-16 02:13:00
8:34 PM,33.8,23.0,65,30.38,10.0,Calm,Calm,-,N/A,,Clear,0,2012-11-16 02:34:00
8:54 PM,33.8,21.2,60,30.38,10.0,Calm,Calm,-,N/A,,Clear,0,2012-11-16 02:54:00
9:14 PM,33.8,19.4,56,30.39,10.0,NNW,3.5,-,N/A,,Clear,340,2012-11-16 03:14:00
9:34 PM,33.8,17.6,52,30.40,10.0,NNW,4.6,-,N/A,,Clear,330,2012-11-16 03:34:00
9:54 PM,32.0,17.6,55,30.40,10.0,NNW,4.6,-,N/A,,Clear,330,2012-11-16 03:54:00
10:13 PM,30.2,17.6,60,30.41,10.0,NW,4.6,-,N/A,,Clear,320,2012-11-16 04:13:00
10:33 PM,30.2,17.6,60,30.41,10.0,NW,3.5,-,N/A,,Clear,320,2012-11-16 04:33:00
10:53 PM,30.2,17.6,60,30.41,10.0,Calm,Calm,-,N/A,,Clear,0,2012-11-16 04:53:00
11:14 PM,30.2,17.6,60,30.42,10.0,Calm,Calm,-,N/A,,Clear,0,2012-11-16 05:14:00
11:34 PM,30.2,17.6,60,30.42,10.0,Calm,Calm,-,N/A,,Clear,0,2012-11-16 05:34:00
11:54 PM,30.2,15.8,55,30.43,10.0,Calm,Calm,-,N/A,,Clear,0,2012-11-16 05:54:00